Погода Есенгылы

Погода Есенгылы : погода сейчас, прогноз погоды и архив. Всё, что Вы хотите узнать о погоде Есенгылы!

Хотите узнать прогноз погоды Есенгылы? Тогда Вам сюда: Погода Есенгылы

Поиск расширенной информации на нашем сайте:

Другие новости

Новости СМИ2

Главная страница сайта

Новости сайта

03.07.2017

Напоминаем, что на нашем специализированном сайте Метеоцентр.Азия вы можете получить высокодетализированные автоматические прогнозы погоды по пунктам России, СНГ и мира в авиационном формате (включающие направление и скорость ветра, видимость, явления погоды, количество и форму облачности, нижнюю и верхнюю границу облачности).


Погода Есенгылы - сегодня

Время (UTC), дата Ветер
(°,м/с) 
Видим.   Явления Облачность Т
(°С)
Тd
(°С)
f(%) Тe
(°С)
Pmin
(гПа)
dP
(гПа)
Po
(мм)
O2
(г/м3)
Тmin Tmax R s Состояние
почвы
21 23.05.18 290 (З) 10 км    ясно 
+20 +18.1 89 +34  1016.7  -0.4  765  283           
00 24.05.18 270 (З) 10 км    ясно 
+17.8 +15.9 89 +29  1015.3  -1.4  764  285           
03 24.05.18 250 (З) 10 км    ясно 
+20.7 +18.4 87 +36  1015.3  751  277           
06 24.05.18 270 (З) 10 км    4/0 верхняя 
[Ci fib]
+27 +17.5 56 +40  1015.7  0.4  764  276  +17.7         
09 24.05.18 320 (СЗ) 10 км    5/0 верхняя 
[Ci fib]
+29.3 +17.1 48 +41  1013.7  -2  762  274           
12 24.05.18 290 (З) 10 км    4/0 верхняя 
[Ci fib]
+28.4 +18.4 55 +43  1012.3  -1.5  761  274           
15 24.05.18 280 (З) 10 км    3/0 верхняя 
[Ci fib]
+26.3 +19 64 +42  1011.4  -0.9  761  275    +30       
18 24.05.18 320 (СЗ) 10 км    ясно 
+23.9 +20.7 82 +44  1011.9  0.6  761  277    +30       
21 24.05.18 240 (ЮЗ) 10 км    ясно 
+20.3 +17.7 85 +34  1010.6  -1.3  760  281           
00 25.05.18 200 (Ю) 10 км    ясно 
+18.1 +16.3 89 +30  1009.9  -0.7  759  283           
03 25.05.18 150 (ЮВ) 10 км    ясно 
+20.9 +16.6 76 +32  1009.9  751  278           
06 25.05.18 180 (Ю) 10 км    ясно 
+27.8 +15.4 47 +37  1010.5  0.5  760  275  +17.9         
09 25.05.18 270 (З) 10 км    ясно 
+29.5 +16.2 45 +40  1009.4  -1.1  759  273           
12 25.05.18 360 (С) 10 км    ясно 
+29.3 +17.1 48 +41  1009  -0.4  759  272           
15 25.05.18 360 (С) 10 км    ясно 
+27.2 +17.7 56 +41  1007.8  -0.2  758  274    +30       
18 25.05.18 270 (З) 10 км    ясно 
+24.7 +18.9 70 +41  1008.6  0.9  758  276    +30       
21 25.05.18 210 (ЮЗ) 10 км    ясно 
+21.3 +16.7 75 +33  1008.8  0.2  759  280           
00 26.05.18 230 (ЮЗ) 10 км    ясно 
+21.1 +17.2 78 +33  1009.3  0.5  759  280           
03 26.05.18 120 (ЮВ) 10 км    8/0 средняя 
[Ac trans]
+23.3 +19.4 79 +40  1009.1  -0.2  759  277           
06 26.05.18 180 (Ю) 10 км    3/0 средняя 
[Ac trans]
+30.1 +16.2 43 +41  1008.3  -0.9  758  272  +20.3         
09 26.05.18 230 (ЮЗ) 10 км    ясно 
+32.2 +17.4 41 +45  1007.6  -0.7  758  269           
12 26.05.18 250 (З) 10 км    ясно 
+30.1 +17.6 47 +43  1008.9  1.3  759  271           
15 26.05.18 270 (З) 10 км    ясно 
+27.5 +12.3 39 +32  1009.4  0.5  759  276    +32.3       
18 26.05.18 270 (З) 10 км    ясно 
+24.3 +17.7 67 +38  1011.2  1.9  760  277    +32.3       
21 26.05.18 250 (З) 10 км    8/0 средняя 
[Ac trans]
+25.2 +21.1 78 +46  1012.8  1.6  762  276           
Время (UTC), дата Ветер
(°,м/с) 
Видим.   Явления Облачность Т
(°С)
Тd
(°С)
f(%) Тe
(°С)
Pmin
(гПа)
dP
(гПа)
Po
(мм)
O2
(г/м3)
Тmin Tmax R s Состояние
почвы

Для получения пояснительной информации подведите курсор к названию столбца.

ПОГОДА Есенгылы - архив

Всё, что Вы хотите узнать о погоде Есенгылы - удобно и подробно!

Выберите нужную дату (начиная с 1 января 2015* года) и нажмите кнопку "Найти".
Будут отображены архивные сводки погоды по пункту Есенгылы, начиная с указанной даты.


Отображать данные в формате CSV (для использования в таблицах Excel)


Внимание! Наш архив погоды предназначен исключительно для личного некоммерческого использования в познавательных целях. Если Вам необходимы официальные справки о состоянии погоды (для производственных, юридических, коммерческих и т.п. целей), обращайтесь в органы Росгидромета.

*Примечание: данная дата относится к архиву по метеостанциям СССР (Россия, СНГ, Балтия).
Архив по метеостанциям Зарубежной Европы и Азии (кроме Китая) хранится 10 дней, по другим регионам земного шара (Китай, Африка, Америка, Австралия, Океания) - 1 день.

Есенгылы - район местоположения метеостанции


Название, широта, долгота, высота метеостанции:
Есенгылы 37.5°ш. 53.6°д. -22 м над ур. моря [Туркменистан]

Дополнительная информация

В oтличие oт бoльшинства пoгoдных сайтoв мы публикуем пoдрoбную метеoинфoрмацию в детальнoм прoфессиoнальнoм фoрмате.

Характеристики температуры и влажнoсти вoздуха измеряются на высoте 2 м в тени вдали oт зданий и деревьев.
Скoрoсть ветра измеряется на высoте 10 м (на урoвне рoста челoвека скoрoсть ветра ниже в 1.5-2 раза). Если метеoстанция нахoдится в гoрoде или в лесу, тo скoрoсть ветра занижена на 2-4 м/с пo сравнению с oткрытым местoм. Скoрoсть ветра над акватoриями крупных рек и oзёр, а также на вершинах хoлмoв на 2-5 м/с выше, чем в oбычных услoвиях.
Атмoсфернoе давление в разных тoчках местнoсти мoжет значительнo oтличаться oт давления на метеoстанции, в зависимoсти oт услoвий рельефа (при пoдъёме на 10 м давление пoнижается примернo на 1 мм рт.ст.).